DW2199 Weather Reports


time (UTC)temp
C
wind
direction
speed
KPH
gust
KPH
rain 1hr
cm
rain 24hr
cm
rain mn
cm
humidity
%
barometer
mb
20260506221504 8 326 0.0 1.6 0.00 0.00 0.00 95 1006.6
20260506220133 8 214 0.0 3.2 0.00 0.00 0.00 95 1006.6
20260506214549 8 214 0.0 1.6 0.00 0.00 0.00 95 1006.5
20260506213103 8 203 0.0 1.6 0.00 0.00 0.00 95 1006.3
20260506211537 7 203 0.0 1.6 0.00 0.00 0.00 95 1006.1
20260506210035 8 198 0.0 1.6 0.00 0.00 0.00 95 1005.9
20260506204536 8 203 0.0 1.6 0.00 0.00 0.00 95 1005.9
20260506203035 7 203 0.0 1.6 0.00 0.00 0.00 94 1005.8
20260506201538 8 203 0.0 1.6 0.00 0.00 0.00 95 1005.8
20260506200032 8 203 0.0 0.0 0.00 0.00 0.00 94 1005.7
20260506194531 8 203 0.0 0.0 0.00 0.00 0.00 94 1005.9
20260506193029 8 203 0.0 4.8 0.00 0.00 0.00 93 1005.9
20260506191518 8 212 0.0 1.6 0.00 0.00 0.00 94 1005.9
20260506190025 8 207 0.0 1.6 0.00 0.00 0.00 94 1006.0
20260506184520 8 207 0.0 8.0 0.00 0.00 0.00 94 1005.9
20260506183014 8 191 0.0 1.6 0.00 0.00 0.00 94 1006.2
20260506181514 8 191 0.0 1.6 0.00 0.00 0.00 94 1006.2
20260506180020 8 191 0.0 1.6 0.00 0.00 0.00 95 1006.1
20260506174522 8 191 0.0 1.6 0.00 0.00 0.00 95 1005.9
20260506173011 8 221 0.0 1.6 0.00 0.00 0.00 95 1005.8
20260506171608 8 321 0.0 4.8 0.00 0.00 0.00 95 1006.2
20260506170059 8 183 0.0 3.2 0.00 0.00 0.00 95 1006.0
20260506164556 8 193 0.0 1.6 0.00 0.00 0.00 95 1006.1
20260506163106 8 191 0.0 0.0 0.00 0.00 0.00 95 1005.9
20260506161554 8 191 0.0 1.6 0.00 0.00 0.00 95 1005.9
20260506154552 8 197 0.0 1.6 0.00 0.00 0.00 95 1006.4
20260506153048 8 197 0.0 1.6 0.00 0.00 0.00 95 1006.6
20260506151535 8 196 0.0 1.6 0.00 0.00 0.00 95 1006.7
20260506150029 8 191 0.0 1.6 0.00 0.00 0.00 95 1006.8
20260506144517 8 190 0.0 1.6 0.00 0.00 0.00 94 1007.1
20260506143018 9 191 0.0 1.6 0.00 0.00 0.00 94 1007.0
20260506141514 9 190 0.0 1.6 0.00 0.00 0.00 94 1007.2
20260506140018 10 190 0.0 1.6 0.00 0.00 0.00 94 1007.0
20260506134511 10 186 0.0 1.6 0.00 0.00 0.00 94 1006.9
20260506133013 10 167 0.0 1.6 0.00 0.00 0.00 94 1006.7
20260506131508 10 166 0.0 1.6 0.00 0.00 0.00 93 1006.8
20260506130008 10 166 0.0 1.6 0.00 0.00 0.00 93 1007.0
20260506124551 10 167 0.0 3.2 0.00 0.00 0.00 94 1007.0
20260506123052 11 167 0.0 3.2 0.00 0.00 0.00 94 1007.0
20260506121550 11 169 0.0 0.0 0.00 0.00 0.00 95 1007.1
20260506120051 11 169 0.0 1.6 0.00 0.00 0.00 95 1007.1
20260506114552 11 152 0.0 1.6 0.00 0.00 0.00 95 1007.0
20260506113044 11 153 0.0 1.6 0.00 0.00 0.00 95 1006.8
20260506111543 11 337 0.0 6.4 0.00 0.00 0.00 95 1006.3
20260506110043 11 212 0.0 6.4 0.00 0.00 0.00 95 1007.3
20260506104532 11 244 0.0 1.6 0.00 0.00 0.00 95 1006.8
20260506103032 11 345 0.0 1.6 0.00 0.00 0.00 94 1007.1
20260506101528 11 345 0.0 0.0 0.00 0.00 0.00 94 1006.5
20260506100027 11 346 0.0 1.6 0.00 0.00 0.00 94 1006.3
20260506094526 11 346 0.0 0.0 0.00 0.00 0.00 94 1006.3
20260506093026 11 346 0.0 0.0 0.00 0.00 0.00 94 1006.6
20260506091524 12 349 0.0 1.6 0.00 0.00 0.00 93 1006.8
20260506090022 12 352 0.0 1.6 0.00 0.00 0.00 94 1006.8
20260506084509 12 352 0.0 0.0 0.00 0.00 0.00 94 1006.9
20260506083007 12 352 0.0 1.6 0.00 0.00 0.00 94 1007.1
20260506081509 12 353 0.0 0.0 0.00 0.00 0.00 94 1006.9
20260506073005 12 352 0.0 0.0 0.00 0.00 0.00 94 1007.5
20260506071505 12 352 0.0 0.0 0.00 0.00 0.00 93 1007.3
20260506061529 13 352 0.0 0.0 0.00 0.00 0.00 92 1007.5
20260506044528 14 353 0.0 0.0 0.00 0.00 0.00 89 1008.0
20260506043020 14 352 0.0 1.6 0.00 0.00 0.00 88 1008.1
20260506041506 14 352 0.0 1.6 0.00 0.00 0.00 87 1008.2
20260506040005 15 352 0.0 0.0 0.00 0.00 0.00 84 1007.6
20260506034504 15 352 0.0 1.6 0.00 0.00 0.00 82 1007.6
20260506033004 15 243 0.0 1.6 0.00 0.00 0.00 81 1007.2
20260506031506 15 188 0.0 3.2 0.00 0.00 0.00 81 1007.5
20260506030002 15 205 0.0 8.0 0.00 0.00 0.00 85 1007.1
20260506024600 14 169 0.0 3.2 0.00 0.00 0.00 92 1007.3
20260506023059 14 169 0.0 0.0 0.00 0.00 0.00 92 1006.7
20260506021538 14 169 0.0 0.0 0.00 0.00 0.00 91 1006.5
20260506020036 14 169 0.0 1.6 0.00 0.00 0.00 89 1006.3
20260506014525 14 169 0.0 0.0 0.00 0.00 0.00 91 1006.3
20260506013024 14 169 0.0 0.0 0.00 0.00 0.00 91 1005.9
20260506011531 14 169 0.0 1.6 0.00 0.00 0.00 91 1006.0
20260506010020 14 169 0.0 0.0 0.00 0.00 0.00 91 1005.8
20260506004533 14 169 0.0 0.0 0.00 0.00 0.00 90 1005.4
20260506003022 15 169 0.0 1.6 0.00 0.00 0.00 89 1005.2
20260506001515 15 169 0.0 0.0 0.00 0.00 0.00 88 1005.0
20260506000017 16 169 0.0 0.0 0.00 0.00 0.00 86 1005.1
20260505234608 16 169 0.0 0.0 0.00 0.00 0.00 85 1005.1
20260505233120 16 169 0.0 0.0 0.00 0.00 0.00 83 1004.8
20260505231556 16 169 0.0 0.0 0.00 0.00 0.00 80 1005.0
20260505230056 17 167 0.0 4.8 0.00 0.00 0.00 80 1004.5
20260505224556 16 191 0.0 1.6 0.00 0.00 0.00 81 1004.8
20260505223053 16 191 0.0 4.8 0.00 0.00 0.00 78 1005.0